Weather in Rusyatino

Russia / Tula Oblast     54°42′09″N   37°32′01″E
temp.,
°C
wind,
m/s
gust,
m/s
humid.,
%
clouds,
%
prec.,
mm/h
press.,
hPa
HPBL,
m
4 march, thu
thu400:00−2wsw6139699 0.2 1010557
03:000wsw71590100 0.4 1008675
06:000w71589100 0.3 1005704
09:00−1wsw7129083 0.3 1003736
12:00−1wsw71290100 0.1 1001606
15:000w61098100 0.7 1000646
18:00−1wsw51097100 1.3 1000535
21:00−3n2696100 3.1 1001237
5 march, fri
fri500:00−6nw3493100 0.0 100369
03:00−8nw239666 0.0 100521
06:00−9wnw22950 0.0 100721
09:00−8w35940 0.0 1008170
12:00−4wnw358857 0.1 1009622
15:00−3wnw457977 0.1 10111044
18:00−6wnw238433 0.1 101221
21:00−9nw128617 0.1 101421
6 march, sat
sat600:00−10sw118719 0.0 101521
03:00−10sw118841 0.0 101621
06:00−11sse128980 0.0 101521
09:00−9se229069 0.0 101685
12:00−6ese2291100 0.1 1016284
15:00−5ne2291100 1.1 1016333
18:00−8n2394100 0.3 101645
21:00−9wsw359397 0.4 101795
7 march, sun
sun700:00−11sw5109051 0.0 1015192
03:00−10sw7158734 0.0 1012466
06:00−6sw91785100 0.1 1007812
09:00−5sw111990100 0.2 10021102
12:00−3wsw111991100 0.5 9981277
15:00−5nw101693100 2.6 998992
18:00−8wnw5126967 0.2 1001298
21:00−10sw5107833 0.2 1002153
8 march, mon
mon800:00−9sw613820 0.0 999336
03:00−8sw816880 0.0 997646
06:00−8nw81479100 0.9 9981208
09:00−10wnw8138894 0.9 1002923
12:00−8wnw8127789 0.1 10061180
15:00−7wnw7108061 0.1 10081045
18:00−9wnw4987100 0.1 1009360
21:00−11wnw3595100 0.1 101289